Regional Weather Roundup
Issued by NWS

Home | Current Version | Previous Version | Text Only | Print | Product List | Glossary On
Versions: 1 2 3 4 5 6 7 8 9 10 11 12 13 14 15 16 17 18 19 20 21 22 23 24 25 26 27 28 29 30 31 32 33 34 35 36 37 38 39 40 41 42 43 44 45 46 47 48 49 50
000
ASUS45 KBOI 270410
RWRID
WEATHER ROUNDUP FOR IDAHO
NATIONAL WEATHER SERVICE BOISE ID
1000 PM MDT SUN APR 26 2015

NOTE: "FAIR" INDICATES FEW OR NO CLOUDS BELOW 12000 FEET
WITH NO SIGNIFICANT WEATHER AND/OR OBSTRUCTIONS TO VISIBILITY

IDZ012-014-270500-
SOUTHWEST IDAHO


CITY           SKY/WX    TMP DP  RH WIND       PRES   REMARKS
BOISE          CLEAR     52  22  30 N6        30.18R
CALDWELL       CLEAR     54  23  30 NW6       30.20R
MOUNTAIN HOME  CLEAR     47  18  31 NW12      30.17R
$$

IDZ016-017-270500-
SOUTHCENTRAL IDAHO


CITY           SKY/WX    TMP DP  RH WIND       PRES   REMARKS
BURLEY         PTCLDY    45  19  35 W14G22    30.15R
JEROME         PTCLDY    45  19  35 SW10      30.16R
TWIN FALLS     CLEAR     43  14  31 S12       30.17R
$$

IDZ019>023-270500-
SOUTHEAST IDAHO


CITY           SKY/WX    TMP DP  RH WIND       PRES   REMARKS
IDAHO FALLS    CLOUDY    42  38  85 N3        30.16R
POCATELLO      CLOUDY    49  36  61 NE5       30.15R
REXBURG        CLOUDY    43  38  82 E6        30.15R
$$

IDZ006-010-011-018-031-032-270500-
CENTRAL IDAHO MOUNTAINS


CITY           SKY/WX    TMP DP  RH WIND       PRES   REMARKS
MCCALL         CLEAR     39  23  52 N7        30.22R WCI  34
HAILEY         PTCLDY    45  28  53 CALM      30.16R
STANLEY          N/A     29  18  63 CALM      30.23R
SALMON         CLOUDY    45  30  57 NW3       30.23R
CHALLIS        CLOUDY    42  25  50 NW7       30.22R
$$

IDZ002-004-006-007-026-270500-
NORTHERN IDAHO


CITY           SKY/WX    TMP DP  RH WIND       PRES   REMARKS
LEWISTON       CLEAR     55  24  30 CALM      30.24R
LOWELL           N/A     43  38  82 CALM      30.30R
COEUR D`ALENE  PTCLDY    48  32  53 S6        30.24R
MULLAN PASS    CLEAR     32  19  58 NW5       30.22R WCI  27
$$


USA.gov is the U.S. government's official web portal to all federal, state and local government web resources and services.